Skip Page Navigation
NASA JPL Caltech
NASA Logo - Jet Propulsion Laboratory + View the NASA Portal
+ Near-Earth Object (NEO) Program
Search JPL
JPL Home Earth Solar System Stars & Galaxies Technology
JPL Solar System Dynamics
BODIES ORBITS EPHEMERIDES TOOLS PHYSICAL DATA DISCOVERY FAQ SITE MAP
JPL Small-Body Database Browser
Search: [ help ]  
293878 Tapping (2007 RV274)
Classification: Main-belt Asteroid          SPK-ID: 2293878
Ephemeris | Orbit Diagram | Orbital Elements | Physical Parameters | Discovery Circumstances ]

[ hide orbit diagram ]
Orbit Diagram
Note: Make sure you have Java enabled on your browser to see the applet. This applet is provided as a 3D orbit visualization tool. The applet was implemented using 2-body methods, and hence should not be used for determining accurate long-term trajectories (over several years or decades) or planetary encounter circumstances. For accurate long-term ephemerides, please instead use our Horizons system.
Orbit Viewer

Additional Notes: the orbits shown in the applet are color coded. The planets are white lines, and the asteroid/comet is a blue line. The bright white line indicates the portion of the orbit that is above the ecliptic plane, and the darker portion is below the ecliptic plane. Likewise for the asteroid/comet orbit, the light blue indicates the portion above the ecliptic plane, and the dark blue the portion below the ecliptic plane.

Orbit Viewer applet originally written and kindly provided by Osamu Ajiki (AstroArts), and further modified by Ron Baalke (JPL).


Orbital Elements at Epoch 2456400.5 (2013-Apr-18.0) TDB
Reference: MPO251809 (heliocentric ecliptic J2000)
 Element Value Uncertainty (1-sigma)   Units 
e 0.1923297 n/a  
a 2.3558140 n/a AU
q 1.9027210 n/a AU
i 3.62215 n/a deg
node 82.65193 n/a deg
peri 191.25178 n/a deg
M 242.78970 n/a deg
tp 2456830.5047058
(2014-Jun-22.00470580)
n/a JED
period 1320.7174974
3.62
n/a
n/a
d
yr
n 0.27257911 n/a deg/d
Q 2.8089070 n/a AU
  Orbit Determination Parameters
   # obs. used (total)      52  
   first obs. used      2000-??-??  
   last obs. used      2013-01-16  
   # oppositions      7  
   planetary ephem.      DE403  
   condition code      0  
   fit RMS      0.32  
   data source      MPC:mpu  
   producer      MPCLINUX  

Additional Information
 T_jup = 3.527 

Ephemeris | Orbit Diagram | Orbital Elements | Physical Parameters | Discovery Circumstances ]

Physical Parameter Table
Parameter Symbol Value Units Sigma Reference Notes
absolute magnitude H 17.6 mag n/a MPO251809  

293878 Tapping           Discovered 2007 Sept. 9 by D. D. Balam at Mauna Kea.
Kenneth Tapping (b. 1945), a solar physicist at the NRC-Dominion Radio Astrophysical Observatory, Penticton, B.C., is responsible for Canada's 10.7-cm flux measurements (continuous since 1946) that are critical to understanding solar variability and climate.
NOTE: some special characters may not display properly (any characters within {} are an attempt to place the proper accent above a character)
Reference: 20120207/MPCPages.arcLast Updated: 2012-02-09
Ephemeris | Orbit Diagram | Orbital Elements | Physical Parameters | Discovery Circumstances ]
ABOUT SSD CREDITS/AWARDS PRIVACY/COPYRIGHT GLOSSARY LINKS
FirstGov 2013-May-21 16:35 UT
(server date/time)  
NASA Home Page
Site Manager:   Donald K. Yeomans
Webmaster  Alan B. Chamberlin